[[{"header":{"parameterUnit":"m.s-1","parameterCategory":1,"la1":30.2991,"la2":30.254,"lo1":-89.0895,"lo2":-89.0444,"dy":0.0017,"dx":0.0017,"nx":28,"ny":28,"refTime":"2025-05-29T03:00:00:Z","depth":0,"parameterNumber":2,"parameterNumberName":"U-component_of_WINDS"},"data":[0,0,0,0,0,0,0,0,0,0,0,0,0,0,0,0,0,0,0,0,0,0,0,0,0,0,0,0,0,0,0,0,0,0,0,0,0,0,0,0,0,0,0,0,0,0,0,0,0,0,0,0,0,0,0,0,0,0,-0.0727,-0.0727,0,-0.0732,-0.0732,-0.0732,-0.0723,-0.0723,-0.0722,-0.0722,-0.0728,-0.0728,-0.0729,0,0,0,0,0,0,0,0,0,0,0,0,0,-0.0711,-0.0711,-0.0727,-0.0727,-0.0727,-0.0732,-0.0732,-0.0732,-0.0723,-0.0723,-0.0722,-0.0722,-0.0728,-0.0728,-0.0729,0,0,0,0,0,0,0,0,0,0,0,0,0,-0.0717,-0.0711,-0.0727,-0.0723,-0.0723,-0.0732,-0.0732,-0.0732,-0.0723,-0.0723,-0.0722,-0.0722,-0.0727,-0.0728,-0.0729,-0.0741,0,0,-0.0731,-0.0731,0,0,0,0,0,0,0,0,-0.0717,-0.0718,-0.0724,-0.0723,-0.0723,-0.0726,-0.0728,-0.0735,-0.0723,-0.0723,-0.0722,-0.0722,-0.0728,-0.0728,-0.073,-0.0742,-0.0742,-0.0731,-0.0731,-0.0731,-0.0732,0,0,0,0,0,0,0,-0.0716,-0.0717,-0.0729,-0.0724,-0.0723,-0.0722,-0.0722,-0.0729,-0.0728,-0.0723,-0.0722,-0.0723,-0.0727,-0.073,-0.073,-0.0742,-0.0731,-0.0731,-0.0732,-0.0732,-0.0764,-0.0765,0,0,0,0,0,0,-0.0716,-0.0717,-0.0729,-0.0729,-0.0719,-0.0722,-0.0723,-0.0726,-0.0728,-0.0728,-0.0723,-0.0723,-0.0729,-0.0729,-0.073,-0.0745,-0.0731,-0.0732,-0.0732,-0.0764,-0.0764,-0.0765,0,0,0,0,0,0,-0.0716,-0.0717,-0.0728,-0.0723,-0.0724,-0.0723,-0.0726,-0.0726,-0.0728,-0.0728,-0.0728,-0.0726,-0.0728,-0.0729,-0.0739,-0.0745,-0.0732,-0.0733,-0.0763,-0.0764,-0.0764,-0.0775,0,0,0,0,0,0,-0.0716,-0.0717,-0.0722,-0.0723,-0.0724,-0.0736,-0.0727,-0.0726,-0.0729,-0.0728,-0.073,-0.073,-0.0728,-0.0738,-0.0739,-0.0746,-0.0733,-0.0762,-0.0763,-0.0764,-0.0774,-0.0776,-0.0778,0,0,0,0,0,-0.0715,-0.0725,-0.0722,-0.0724,-0.073,-0.0737,-0.0738,-0.0735,-0.073,-0.0734,-0.0734,-0.073,-0.0744,-0.0739,-0.074,-0.0747,-0.0762,-0.0763,-0.0764,-0.0774,-0.0776,-0.0778,0,0,0,0,0,0,-0.0725,-0.0725,-0.0722,-0.0733,-0.0735,-0.0735,-0.0741,-0.0738,-0.0742,-0.0741,-0.0737,-0.0738,-0.0748,-0.0748,-0.0742,-0.076,-0.0752,-0.0754,-0.0759,-0.0761,-0.0763,-0.0763,-0.0734,0,0,0,0,0,-0.0729,-0.0734,-0.0734,-0.0743,-0.0744,-0.0743,-0.0745,-0.0743,-0.0745,-0.0746,-0.0747,-0.0749,-0.0754,-0.0758,-0.0762,-0.0774,-0.0775,-0.078,-0.0782,-0.0783,-0.0785,-0.0791,-0.0794,-0.0768,-0.0768,-0.0768,0,0,-0.0736,-0.0737,-0.074,-0.0745,-0.0747,-0.0752,-0.0743,-0.075,-0.0754,-0.0747,-0.0756,-0.0756,-0.0759,-0.077,-0.0774,-0.0771,-0.0792,-0.0785,-0.0786,-0.0787,-0.0793,-0.0795,-0.0797,-0.0769,-0.0769,-0.0769,0,0,-0.0752,-0.0753,-0.0761,-0.0763,-0.0765,-0.0763,-0.0765,-0.0766,-0.0766,-0.0775,-0.077,-0.0775,-0.0784,-0.0786,-0.0788,-0.0805,-0.0801,-0.0806,-0.0816,-0.0822,-0.0824,-0.0826,-0.0832,-0.0834,-0.0808,-0.0808,-0.0808,0,-0.0761,-0.0769,-0.0766,-0.0772,-0.0775,-0.0769,-0.0777,-0.0778,-0.0782,-0.0784,-0.0779,-0.079,-0.0792,-0.0803,-0.0807,-0.0809,-0.0811,-0.0806,-0.0824,-0.0826,-0.0828,-0.0833,-0.0836,-0.0808,-0.0808,-0.0808,-0.0808,0,-0.078,-0.0786,-0.0792,-0.0796,-0.0799,-0.0806,-0.0804,-0.0807,-0.0804,-0.0804,-0.0813,-0.0814,-0.0819,-0.0821,-0.0819,-0.0832,-0.0829,-0.0825,-0.0817,-0.0831,-0.0836,-0.0838,-0.0809,-0.0809,-0.0809,-0.0809,0,0,-0.0804,-0.0805,-0.0807,-0.0808,-0.081,-0.0814,-0.0821,-0.0826,-0.0829,-0.0831,-0.0837,-0.0845,-0.084,-0.0843,-0.0841,-0.0846,-0.086,-0.0841,-0.0841,-0.0844,-0.0874,-0.0878,-0.088,-0.0857,-0.0857,-0.0858,-0.0874,0,-0.082,-0.0832,-0.0829,-0.0841,-0.0846,-0.084,-0.0846,-0.0848,-0.0847,-0.0852,-0.0851,-0.0857,-0.085,-0.0852,-0.0857,-0.0857,-0.0865,-0.0856,-0.0863,-0.0863,-0.0862,-0.0883,-0.0887,-0.0903,-0.0876,-0.0876,-0.0877,0,-0.0841,-0.0844,-0.0856,-0.0857,-0.0859,-0.0864,-0.0868,-0.0872,-0.0874,-0.0873,-0.0876,-0.0873,-0.088,-0.0872,-0.0882,-0.0875,-0.0878,-0.0878,-0.0879,-0.088,-0.0871,-0.0885,-0.0908,-0.091,-0.088,-0.088,-0.0879,0,-0.0857,-0.0864,-0.0872,-0.0874,-0.0874,-0.0878,-0.0879,-0.088,-0.0883,-0.0886,-0.0888,-0.0892,-0.0895,-0.0898,-0.0896,-0.089,-0.0906,-0.0898,-0.0906,-0.0906,-0.091,-0.091,-0.0934,-0.0911,-0.0911,-0.0911,-0.0911,0,-0.0876,-0.0884,-0.0879,-0.0885,-0.0893,-0.0889,-0.0898,-0.0898,-0.0899,-0.0904,-0.0899,-0.0905,-0.0901,-0.0906,-0.0904,-0.0913,-0.0914,-0.0914,-0.0913,-0.0915,-0.0915,-0.0917,-0.0915,-0.0912,-0.0912,-0.0912,-0.0912,0,-0.0895,-0.0893,-0.0901,-0.0901,-0.0901,-0.0908,-0.0908,-0.0913,-0.0911,-0.0918,-0.0919,-0.0918,-0.0923,-0.0921,-0.0927,-0.0926,-0.0937,-0.0935,-0.0936,-0.0936,-0.0944,-0.0943,-0.097,-0.0974,-0.0949,-0.0949,-0.0949,0,-0.0908,-0.0913,-0.0914,-0.0917,-0.0917,-0.0922,-0.0925,-0.0921,-0.0924,-0.0926,-0.0931,-0.0936,-0.094,-0.0949,-0.0948,-0.0953,-0.0951,-0.096,-0.0952,-0.0952,-0.0951,-0.0951,-0.0952,-0.0962,-0.0962,-0.0962,-0.0963,0,-0.093,-0.0928,-0.0932,-0.0935,-0.0938,-0.0941,-0.0943,-0.0946,-0.0942,-0.0946,-0.0951,-0.0954,-0.096,-0.0965,-0.0969,-0.0969,-0.0966,-0.0965,-0.0967,-0.0969,-0.0969,-0.0969,-0.0941,-0.0965,-0.0964,-0.0964,-0.0964,-0.0964,-0.0946,-0.0951,-0.0952,-0.0956,-0.0957,-0.0959,-0.0964,-0.0963,-0.0967,-0.0971,-0.0969,-0.0975,-0.0977,-0.0981,-0.0983,-0.0988,-0.0984,-0.0987,-0.0988,-0.0989,-0.099,-0.0968,-0.0988,-0.0988,-0.0988,-0.0988,-0.0988,0,-0.0968,-0.0968,-0.0972,-0.0975,-0.0979,-0.0974,-0.0976,-0.0979,-0.0985,-0.0986,-0.099,-0.0996,-0.1001,-0.1,-0.1005,-0.1009,-0.1007,-0.101,-0.101,-0.101,-0.0993,-0.0991,-0.1011,-0.1011,-0.1011,-0.1011,-0.1011,-0.1011,-0.098,-0.0988,-0.0987,-0.0995,-0.0995,-0.1001,-0.1002,-0.1004,-0.1005,-0.1012,-0.1016,-0.1015,-0.1016,-0.1021,-0.1025,-0.1025,-0.1027,-0.103,-0.103,-0.1014,-0.1011,-0.1009,-0.1007,-0.1031,-0.1031,-0.1046,-0.1047,-0.1047]},{"header":{"parameterUnit":"m.s-1","parameterCategory":1,"la1":30.2991,"la2":30.254,"lo1":-89.0895,"lo2":-89.0444,"dy":0.0017,"dx":0.0017,"nx":28,"ny":28,"refTime":"2025-05-29T03:00:00:Z","depth":0,"parameterNumber":3,"parameterNumberName":"V-component_of_WINDS"},"data":[0,0,0,0,0,0,0,0,0,0,0,0,0,0,0,0,0,0,0,0,0,0,0,0,0,0,0,0,0,0,0,0,0,0,0,0,0,0,0,0,0,0,0,0,0,0,0,0,0,0,0,0,0,0,0,0,0,0,1.6567,1.6567,0,1.6547,1.6547,1.6547,1.6543,1.6543,1.6543,1.6543,1.652,1.652,1.6519,0,0,0,0,0,0,0,0,0,0,0,0,0,1.66,1.6599,1.6567,1.6567,1.6567,1.6547,1.6547,1.6547,1.6543,1.6543,1.6543,1.6543,1.6521,1.652,1.6519,0,0,0,0,0,0,0,0,0,0,0,0,0,1.6583,1.6599,1.6567,1.6563,1.6562,1.6547,1.6547,1.6547,1.6543,1.6543,1.6543,1.6543,1.6521,1.652,1.6519,1.6507,0,0,1.6515,1.6515,0,0,0,0,0,0,0,0,1.6584,1.6582,1.6563,1.6563,1.6562,1.6548,1.655,1.6533,1.6543,1.655,1.6543,1.6543,1.6529,1.6527,1.6523,1.6506,1.6505,1.6515,1.6515,1.6514,1.6514,0,0,0,0,0,0,0,1.6585,1.6583,1.6559,1.6563,1.6562,1.6561,1.6558,1.6547,1.6538,1.6549,1.6549,1.6547,1.6529,1.6524,1.6522,1.6505,1.6515,1.6514,1.6514,1.6513,1.6476,1.6476,0,0,0,0,0,0,1.6588,1.6584,1.656,1.6559,1.6574,1.656,1.6557,1.6552,1.6538,1.6537,1.6546,1.6547,1.6526,1.6524,1.6522,1.6506,1.6514,1.6513,1.6512,1.6476,1.6476,1.6476,0,0,0,0,0,0,1.6588,1.6586,1.6561,1.6571,1.6568,1.6559,1.6553,1.6552,1.6547,1.6536,1.6535,1.6543,1.6526,1.6523,1.6511,1.6506,1.6512,1.6511,1.6477,1.6476,1.6476,1.6476,0,0,0,0,0,0,1.6589,1.6586,1.6582,1.6571,1.6567,1.6551,1.6553,1.6551,1.6545,1.6545,1.6533,1.6531,1.6526,1.6512,1.651,1.6504,1.6511,1.6477,1.6476,1.6476,1.6477,1.6476,1.6475,0,0,0,0,0,1.6591,1.6583,1.6582,1.6579,1.6562,1.6551,1.6548,1.6543,1.6545,1.654,1.6534,1.6532,1.6507,1.6511,1.6508,1.6502,1.6477,1.6477,1.6476,1.6477,1.6476,1.6475,0,0,0,0,0,0,1.6593,1.6581,1.658,1.6569,1.6561,1.655,1.6544,1.6542,1.6533,1.6533,1.6526,1.6524,1.6511,1.6505,1.6511,1.649,1.6492,1.6491,1.6494,1.6493,1.6492,1.6494,1.651,0,0,0,0,0,1.6592,1.6584,1.6574,1.6565,1.6561,1.6553,1.6548,1.6545,1.6536,1.6532,1.6524,1.6515,1.6505,1.6499,1.6489,1.6476,1.6473,1.647,1.6469,1.6469,1.6468,1.6459,1.6458,1.6473,1.6473,1.6473,0,0,1.659,1.6583,1.6578,1.6565,1.6559,1.655,1.6551,1.6541,1.6534,1.6531,1.6518,1.6512,1.6501,1.6488,1.6482,1.6483,1.6463,1.6468,1.6468,1.6467,1.6458,1.6457,1.6456,1.6473,1.6473,1.6473,0,0,1.6582,1.6576,1.6568,1.6561,1.6551,1.6546,1.6544,1.6533,1.6529,1.6517,1.6514,1.6505,1.6488,1.648,1.6474,1.6462,1.646,1.6459,1.6455,1.6447,1.6446,1.6445,1.644,1.6438,1.6458,1.6458,1.6458,0,1.6581,1.6568,1.6563,1.6554,1.6548,1.6545,1.6535,1.6529,1.6516,1.6511,1.6513,1.6491,1.6484,1.6468,1.6465,1.6461,1.6457,1.6461,1.6447,1.6446,1.6444,1.644,1.6438,1.6458,1.6458,1.6458,1.6458,0,1.6566,1.6558,1.6552,1.654,1.6533,1.6524,1.6517,1.6511,1.6508,1.6502,1.6489,1.648,1.6468,1.6464,1.6461,1.6448,1.6448,1.6448,1.6451,1.6443,1.6438,1.6437,1.6458,1.6458,1.6458,1.6458,0,0,1.6559,1.6545,1.6543,1.6537,1.6526,1.6518,1.6508,1.6497,1.6491,1.6483,1.6473,1.6459,1.6459,1.6452,1.6448,1.6441,1.6431,1.6441,1.6441,1.6439,1.6415,1.6415,1.6413,1.6429,1.6429,1.6429,1.6415,0,1.6549,1.6533,1.6528,1.6513,1.6504,1.6501,1.6492,1.6483,1.6478,1.6469,1.6462,1.6452,1.6453,1.6448,1.6441,1.6434,1.6426,1.6435,1.642,1.6419,1.6422,1.641,1.641,1.6398,1.6414,1.6413,1.6413,0,1.6536,1.6527,1.6512,1.6501,1.6497,1.6489,1.6478,1.647,1.646,1.6456,1.6448,1.6444,1.6433,1.6436,1.642,1.6426,1.6419,1.6415,1.6414,1.6412,1.6416,1.6407,1.6394,1.6392,1.641,1.6411,1.6411,0,1.6531,1.6516,1.6504,1.65,1.6487,1.6481,1.6476,1.6466,1.6459,1.6449,1.6445,1.6433,1.6427,1.6418,1.6411,1.6414,1.6394,1.6397,1.639,1.639,1.6386,1.6386,1.6371,1.6383,1.6383,1.6383,1.6383,0,1.6521,1.6511,1.6502,1.6495,1.6484,1.6478,1.6467,1.6461,1.6452,1.6443,1.6439,1.643,1.6422,1.6412,1.6406,1.6393,1.639,1.6386,1.6384,1.6386,1.6386,1.6381,1.6382,1.6382,1.6382,1.6382,1.6383,0,1.6514,1.6507,1.6494,1.6483,1.648,1.6473,1.6463,1.6455,1.6449,1.6438,1.6435,1.6425,1.6413,1.6405,1.639,1.6386,1.6371,1.637,1.6374,1.6374,1.6367,1.6367,1.6347,1.6344,1.6359,1.6359,1.6358,0,1.6507,1.65,1.6488,1.6482,1.6476,1.6466,1.646,1.6453,1.6446,1.6434,1.6427,1.6415,1.6405,1.6386,1.6377,1.6365,1.6363,1.6357,1.6361,1.6362,1.6362,1.6362,1.6361,1.6356,1.6356,1.6356,1.6355,0,1.6496,1.6493,1.6483,1.6473,1.6465,1.6456,1.6447,1.6442,1.6434,1.6426,1.6414,1.6406,1.639,1.6378,1.6365,1.6358,1.6355,1.6354,1.6352,1.6353,1.6356,1.6353,1.6372,1.6355,1.6355,1.6355,1.6355,1.6355,1.6488,1.6481,1.6472,1.6461,1.6454,1.6445,1.6438,1.6431,1.6421,1.6408,1.6404,1.6391,1.6381,1.6363,1.6356,1.6345,1.6345,1.6342,1.6341,1.634,1.634,1.6358,1.6342,1.6342,1.6342,1.6342,1.6342,0,1.6476,1.6469,1.646,1.6448,1.6439,1.6438,1.6428,1.6421,1.641,1.64,1.639,1.6376,1.6363,1.6353,1.6341,1.6334,1.6332,1.633,1.633,1.6329,1.634,1.6343,1.6332,1.6332,1.6332,1.6332,1.6332,1.6332,1.6468,1.6456,1.6452,1.6436,1.6429,1.6417,1.6411,1.6403,1.6396,1.638,1.637,1.6364,1.6354,1.634,1.6328,1.6325,1.632,1.6319,1.6316,1.6327,1.6328,1.6329,1.6332,1.6318,1.6318,1.6305,1.6305,1.6305]}]]